Date,TemperatureHighF,TemperatureAvgF,TemperatureLowF,DewpointHighF,DewpointAvgF,DewpointLowF,HumidityHigh,HumidityAvg,HumidityLow,PressureMaxIn,PressureMinIn,WindSpeedMaxMPH,WindSpeedAvgMPH,GustSpeedMaxMPH,PrecipitationSumIn
2013-6-1,85,73,67,75,70,65,97,91,65,29.99,29.81,5,0,20,0.39
2013-6-2,80,72,67,69,66,61,97,81,61,29.96,29.90,5,1,9,0.01
2013-6-3,84,71,61,65,62,59,97,75,47,30.02,29.91,6,1,6,0.00
2013-6-4,90,74,60,69,64,58,95,72,46,30.01,29.90,4,0,6,0.00
2013-6-5,90,77,67,75,70,63,92,78,62,29.94,29.79,4,0,7,0.00
2013-6-6,84,76,68,70,68,66,96,77,58,29.84,29.75,5,1,9,0.01
2013-6-7,83,74,65,67,61,56,83,66,40,29.89,29.77,6,1,10,0.00
2013-6-8,89,74,59,67,60,56,97,65,39,29.99,29.88,2,0,5,0.00
2013-6-9,94,77,65,73,67,59,95,75,47,29.98,29.80,5,0,11,0.00
2013-6-10,98,82,67,73,69,65,98,68,35,29.92,29.86,5,0,11,0.00
2013-6-11,102,86,73,75,72,69,90,65,37,30.01,29.91,3,0,7,0.00
2013-6-12,100,87,72,78,74,70,96,69,45,30.03,29.89,3,0,7,0.00
2013-6-13,94,85,74,77,72,66,81,66,44,29.94,29.86,8,1,15,0.00
2013-6-14,89,77,66,66,63,58,95,64,39,30.03,29.93,7,1,10,0.00
2013-6-15,95,79,63,71,66,62,96,67,41,30.06,29.94,2,0,5,0.00
2013-6-16,92,79,69,76,70,66,91,75,53,30.03,29.93,2,0,3,0.00
2013-6-17,89,76,70,76,72,69,97,87,65,29.97,29.83,2,0,13,1.46
2013-6-18,86,75,69,72,70,68,98,85,57,29.97,29.83,5,1,8,0.02
2013-6-19,94,77,66,75,70,65,98,81,45,30.04,29.94,5,0,14,0.29
2013-6-20,97,82,67,77,71,66,98,73,45,30.12,30.03,1,0,3,0.01
2013-6-21,97,83,69,76,72,67,94,71,47,30.15,30.05,1,0,4,0.00
2013-6-22,98,83,69,75,71,67,94,69,46,30.13,30.00,1,0,4,0.00
2013-6-23,96,82,69,76,71,66,90,70,48,30.09,29.99,1,0,4,0.00
2013-6-24,97,84,72,78,74,70,95,74,49,30.11,29.99,1,0,3,0.00
2013-6-25,98,85,73,76,73,71,94,71,44,30.06,29.92,2,0,9,0.00
2013-6-26,98,86,73,77,72,69,94,67,42,29.98,29.84,1,0,7,0.00
2013-6-27,101,87,76,81,75,70,82,69,48,29.91,29.80,5,1,10,0.00
2013-6-28,92,79,72,77,72,69,97,79,52,29.89,29.70,4,0,18,1.15
2013-6-29,89,80,67,69,64,59,94,62,37,29.75,29.67,8,1,9,0.00
2013-6-30,79,73,66,67,64,61,89,74,61,29.82,29.70,6,1,8,0.00